When you browse on this site, cookies collect data to enhance your experience and personalize the content and advertising you see.
Visit our Privacy Policy to learn more. By continuing to use the site, you agree to this use of cookies and data.
  • în România
  • Lista ţărilor
  • Pe 7 zile
  • Temperatura apei
  • Hartă satelitară
  • Meteo pe hartă
  • Widget-uri
  • user-avatar
    Intrare

    Meteo pe oră la Kresty

    Astăzi, 19 Februarie, Marţi

    Timp Temperatura Precipitaţii Vânt Presiune Umiditate
    00:00 -9°C° 0 mm 3 m/s 749 mmHg 82%
    01:00 -10°C° 0 mm 4 m/s 748 mmHg 79%
    02:00 -8°C° 0 mm 5 m/s 747 mmHg 76%
    03:00 -8°C° 0 mm 5 m/s 746 mmHg 76%
    04:00 -8°C° 0 mm 5 m/s 745 mmHg 77%
    05:00 -8°C° 0 mm 5 m/s 744 mmHg 77%
    06:00 -8°C° 0 mm 5 m/s 743 mmHg 78%
    07:00 -7°C° 0 mm 5 m/s 743 mmHg 79%
    08:00 -7°C° 0 mm 4 m/s 742 mmHg 80%
    09:00 -6°C° 0 mm 5 m/s 742 mmHg 81%
    10:00 -4°C° 0 mm 5 m/s 742 mmHg 82%
    11:00 -2°C° 0 mm 5 m/s 741 mmHg 83%
    12:00 -2°C° 0 mm 5 m/s 741 mmHg 84%
    13:00 -1°C° 0 mm 5 m/s 741 mmHg 86%
    14:00 -1°C° 0 mm 4 m/s 740 mmHg 87%
    15:00 -1°C° 0 mm 4 m/s 740 mmHg 88%
    16:00 -1°C° 0 mm 4 m/s 740 mmHg 89%
    17:00 -1°C° 0 mm 4 m/s 740 mmHg 89%
    18:00 -2°C° 0 mm 4 m/s 739 mmHg 90%
    19:00 -2°C° 0 mm 4 m/s 738 mmHg 90%
    20:00 -1°C° 0 mm 3 m/s 738 mmHg 91%
    21:00 -2°C° 0 mm 4 m/s 737 mmHg 90%
    22:00 -2°C° 0 mm 4 m/s 736 mmHg 90%
    23:00 -2°C° 0 mm 4 m/s 736 mmHg 89%

    Mâine, 20 Februarie, Miercuri

    Timp Temperatura Precipitaţii Vânt Presiune Umiditate
    00:00 -2°C° 0.1 mm 4 m/s 735 mmHg 90%
    01:00 -2°C° 0.1 mm 4 m/s 734 mmHg 90%
    02:00 -1°C° 0.1 mm 4 m/s 733 mmHg 90%
    03:00 -1°C° 0.1 mm 4 m/s 733 mmHg 90%
    04:00 -1°C° 0.1 mm 4 m/s 732 mmHg 89%
    05:00 -1°C° 0.1 mm 4 m/s 731 mmHg 89%
    06:00 -1°C° 0.2 mm 4 m/s 731 mmHg 90%
    07:00 -1°C° 0.2 mm 4 m/s 731 mmHg 91%
    08:00 -1°C° 0.2 mm 4 m/s 731 mmHg 92%
    09:00 0°C° 0 mm 4 m/s 731 mmHg 92%
    10:00 0°C° 0 mm 4 m/s 731 mmHg 91%
    11:00 0°C° 0 mm 4 m/s 731 mmHg 90%
    12:00 0°C° 0.1 mm 4 m/s 731 mmHg 91%
    13:00 0°C° 0.1 mm 4 m/s 731 mmHg 91%
    14:00 0°C° 0.1 mm 4 m/s 731 mmHg 91%
    15:00 0°C° 0.1 mm 4 m/s 731 mmHg 92%
    16:00 +1°C° 0.1 mm 3 m/s 731 mmHg 92%
    17:00 0°C° 0.1 mm 3 m/s 731 mmHg 93%
    18:00 0°C° 0.2 mm 3 m/s 730 mmHg 93%
    19:00 0°C° 0.2 mm 3 m/s 730 mmHg 93%
    20:00 0°C° 0.2 mm 3 m/s 730 mmHg 93%
    21:00 0°C° 0.1 mm 3 m/s 730 mmHg 93%
    22:00 +1°C° 0.1 mm 2 m/s 730 mmHg 94%
    23:00 -1°C° 0.1 mm 2 m/s 730 mmHg 95%

    Poimâine, 21 Februarie, Joi

    Timp Temperatura Precipitaţii Vânt Presiune Umiditate
    00:00 -1°C° 0.3 mm 2 m/s 730 mmHg 95%
    01:00 -1°C° 0.3 mm 2 m/s 730 mmHg 95%
    02:00 -1°C° 0.3 mm 2 m/s 730 mmHg 96%
    03:00 -1°C° 0.5 mm 2 m/s 730 mmHg 96%
    04:00 -1°C° 0.5 mm 2 m/s 730 mmHg 96%
    05:00 -1°C° 0.5 mm 2 m/s 731 mmHg 96%
    06:00 -2°C° 0.6 mm 3 m/s 731 mmHg 94%
    07:00 -4°C° 0.6 mm 4 m/s 732 mmHg 93%
    08:00 -5°C° 0.6 mm 5 m/s 733 mmHg 91%
    09:00 -6°C° 0.2 mm 5 m/s 734 mmHg 89%
    10:00 -8°C° 0.2 mm 6 m/s 735 mmHg 88%
    11:00 -8°C° 0.2 mm 6 m/s 736 mmHg 86%
    12:00 -9°C° 0.1 mm 6 m/s 737 mmHg 84%
    13:00 -10°C° 0.1 mm 6 m/s 738 mmHg 82%
    14:00 -10°C° 0.1 mm 6 m/s 739 mmHg 80%
    15:00 -11°C° 0.1 mm 6 m/s 740 mmHg 80%
    16:00 -11°C° 0.1 mm 6 m/s 741 mmHg 79%
    17:00 -12°C° 0.1 mm 6 m/s 742 mmHg 79%
    18:00 -12°C° 0.1 mm 6 m/s 743 mmHg 78%
    19:00 -14°C° 0.1 mm 6 m/s 744 mmHg 77%
    20:00 -14°C° 0.1 mm 6 m/s 745 mmHg 76%
    21:00 -15°C° 0 mm 6 m/s 746 mmHg 76%
    22:00 -15°C° 0 mm 6 m/s 746 mmHg 76%
    23:00 -15°C° 0 mm 6 m/s 747 mmHg 76%

    22 Februarie, Vineri

    Timp Temperatura Precipitaţii Vânt Presiune Umiditate
    00:00 -16°C° 0 mm 6 m/s 747 mmHg 77%
    01:00 -16°C° 0 mm 6 m/s 748 mmHg 78%
    02:00 -16°C° 0 mm 6 m/s 749 mmHg 79%
    03:00 -16°C° 0 mm 6 m/s 749 mmHg 79%
    04:00 -17°C° 0 mm 5 m/s 750 mmHg 79%
    05:00 -17°C° 0 mm 5 m/s 750 mmHg 80%
    06:00 -17°C° 0 mm 5 m/s 751 mmHg 81%
    07:00 -17°C° 0 mm 5 m/s 751 mmHg 81%
    08:00 -17°C° 0 mm 5 m/s 751 mmHg 82%
    09:00 -15°C° 0 mm 5 m/s 752 mmHg 79%
    10:00 -16°C° 0 mm 6 m/s 752 mmHg 76%
    11:00 -15°C° 0 mm 6 m/s 752 mmHg 73%
    12:00 -15°C° 0 mm 6 m/s 752 mmHg 71%
    13:00 -15°C° 0 mm 6 m/s 752 mmHg 69%
    14:00 -14°C° 0 mm 7 m/s 753 mmHg 68%
    15:00 -15°C° 0 mm 6 m/s 753 mmHg 70%
    16:00 -15°C° 0 mm 6 m/s 754 mmHg 72%
    17:00 -16°C° 0 mm 6 m/s 754 mmHg 74%
    18:00 -16°C° 0 mm 6 m/s 755 mmHg 75%
    19:00 -15°C° 0 mm 5 m/s 755 mmHg 76%
    20:00 -15°C° 0 mm 5 m/s 756 mmHg 77%
    21:00 -15°C° 0 mm 5 m/s 756 mmHg 78%
    22:00 -17°C° 0 mm 5 m/s 757 mmHg 80%
    23:00 -17°C° 0 mm 5 m/s 757 mmHg 82%

    23 Februarie, Sâmbătă

    Timp Temperatura Precipitaţii Vânt Presiune Umiditate
    00:00 -16°C° 0 mm 4 m/s 757 mmHg 83%
    01:00 -16°C° 0 mm 4 m/s 758 mmHg 84%
    02:00 -16°C° 0 mm 4 m/s 758 mmHg 86%
    03:00 -17°C° 0 mm 4 m/s 758 mmHg 88%
    04:00 -17°C° 0 mm 4 m/s 758 mmHg 89%
    05:00 -17°C° 0 mm 3 m/s 758 mmHg 91%
    06:00 -17°C° 0 mm 3 m/s 758 mmHg 91%
    07:00 -17°C° 0 mm 3 m/s 759 mmHg 91%
    08:00 -17°C° 0 mm 3 m/s 759 mmHg 91%
    09:00 -16°C° 0 mm 3 m/s 759 mmHg 88%
    10:00 -13°C° 0 mm 2 m/s 759 mmHg 85%
    11:00 -12°C° 0 mm 2 m/s 759 mmHg 82%
    12:00 -10°C° 0 mm 2 m/s 759 mmHg 81%
    13:00 -10°C° 0 mm 2 m/s 759 mmHg 80%
    14:00 -9°C° 0 mm 2 m/s 759 mmHg 79%
    15:00 -9°C° 0 mm 2 m/s 759 mmHg 82%
    16:00 -9°C° 0 mm 1 m/s 759 mmHg 86%
    17:00 -9°C° 0 mm 1 m/s 759 mmHg 90%
    18:00 -10°C° 0 mm 1 m/s 759 mmHg 90%
    19:00 -10°C° 0 mm 1 m/s 759 mmHg 90%
    20:00 -10°C° 0 mm 1 m/s 759 mmHg 90%
    21:00 -12°C° 0 mm 2 m/s 759 mmHg 89%
    22:00 -10°C° 0 mm 2 m/s 759 mmHg 88%
    23:00 -10°C° 0 mm 2 m/s 759 mmHg 87%

    24 Februarie, Duminică

    Timp Temperatura Precipitaţii Vânt Presiune Umiditate
    00:00 -10°C° 0 mm 2 m/s 759 mmHg 89%
    01:00 -12°C° 0 mm 2 m/s 759 mmHg 92%
    02:00 -12°C° 0 mm 2 m/s 759 mmHg 94%
    03:00 -12°C° 0 mm 2 m/s 759 mmHg 95%
    04:00 -12°C° 0 mm 2 m/s 759 mmHg 96%
    05:00 -12°C° 0 mm 2 m/s 758 mmHg 96%
    06:00 -10°C° 0 mm 2 m/s 759 mmHg 96%
    07:00 -10°C° 0 mm 2 m/s 759 mmHg 95%
    08:00 -9°C° 0 mm 2 m/s 759 mmHg 95%
    09:00 -8°C° 0 mm 2 m/s 759 mmHg 93%
    10:00 -7°C° 0 mm 2 m/s 759 mmHg 92%
    11:00 -7°C° 0 mm 3 m/s 758 mmHg 90%
    12:00 -6°C° 0 mm 3 m/s 758 mmHg 90%
    13:00 -6°C° 0 mm 3 m/s 758 mmHg 90%
    14:00 -5°C° 0 mm 3 m/s 757 mmHg 89%
    15:00 -5°C° 0 mm 3 m/s 757 mmHg 90%
    16:00 -5°C° 0 mm 3 m/s 756 mmHg 91%
    17:00 -4°C° 0 mm 3 m/s 756 mmHg 92%
    18:00 -4°C° 0.1 mm 3 m/s 755 mmHg 92%
    19:00 -4°C° 0.1 mm 3 m/s 755 mmHg 93%
    20:00 -4°C° 0.1 mm 3 m/s 754 mmHg 93%
    21:00 -3°C° 0.1 mm 4 m/s 754 mmHg 93%
    22:00 -3°C° 0.1 mm 4 m/s 753 mmHg 93%
    23:00 -3°C° 0.1 mm 4 m/s 752 mmHg 93%
    Arată mai mult